PAYLOAD B

Satellite information

Favourite Embed

Satellite Type and Status

PAYLOADIN ORBIT

Key statistics

Satellite PAYLOAD B at a glance.

Uptime

4435

Days in orbit

Revolutions

≈ 14.7

Per day

Orbit

SSO

Sun Synchronous Orbit

Inclination

98.1

Latest

Satellite identification and parameters

Extended collection of information and parameters for PAYLOAD B.

Object identification

Identified? True

Debris? False

Object name: PAYLOAD B

International designator: 2013-037B

Object number (NORAD): 39209

Object ID (CCSDS): 39209

Country: PEOPLES REPUBLIC OF CHINA (PRC)

Current information (Y/N): Y

RCS size: LARGE

Orbital parameters

Period: 97.711 minutes

Inclination: 98.0808 deg

SMA: 7027.332 km

Apoapsis: 651.496 km

Periapsis: 646.899 km

RAAN: 253.6229 deg

Eccentricy: 0.00032702

Argument of periapsis: 334.896 deg

Mean anomaly: 25.2088 deg

Mean motion: 14.73726918 rev/day

Mean motion (dot): 0.00001441 rev/day2

B* drag term: 0.00022842404 1/REarth

Two-line elements (TLE)

Creation date: Sept. 8, 2025, 6:18 p.m.

Reference frame: TEME

Reference center: EARTH

Epoch: Sept. 8, 2025, 2:15 p.m. UTC

TLE line 0: 0 PAYLOAD B

TLE line 1: 1 39209U 13037B 25251.59417833 .00001441 00000-0 22842-3 0 9993

TLE line 2: 2 39209 98.0808 253.6229 0003270 334.8960 25.2088 14.73726918650860

Live tracking on map

Real-time ground track for satellite PAYLOAD B.

In-orbit conjunctions

There are no conjunctions computed for PAYLOAD B, at the moment. Check back to stay up to date, as we update our databases every day.

Go to all conjunctions

Associated space launch

PAYLOAD B was lifted into orbit during the mission ‘Long March 4C | Shijian 15, Shiyan 7 & ChuangXin 3’, on board a Long March 4C space rocket.

The launch took place on July 19, 2013, 11:37 p.m. from Launch Complex 9.

For more information about the launch, click the button.

Launch to space Long March 4C | Shijian 15, Shiyan 7 & ChuangXin 3
Long March 4C | Shijian 15, Shiyan 7 & ChuangXin 3

Agency: N/A

Status: Launch Successful

Launch date: July 19, 2013, 11:37 p.m. UTC

Rocket: Long March 4C

Launch pad: Launch Complex 9

Location: Taiyuan Satellite Launch Center, People's Republic of China

...

Latest news about this satellite

There are no fresh news available about this satellite. Check back as we update our databases every day.


Newsletter sign-up

Weekly statistics, charts and insights to help you stay on top of the space industry.